When you browse on this site, cookies collect data to enhance your experience and personalize the content and advertising you see.
Visit our Privacy Policy to learn more. By continuing to use the site, you agree to this use of cookies and data.
  • In Latvia
  • List of Countries
  • For 7 days
  • Water Temperature
  • Weather Map
  • Weather Widgets
  • user-avatar
    Login

    Hourly Weather Podvale

    Today, 24 September, Tuesday

    Time Temperature Precipitation Wind Pressure Humidity
    00:00 +2°C° 0 mm 5 mps 751 mmHg 87%
    01:00 +2°C° 0.1 mm 6 mps 752 mmHg 86%
    02:00 +2°C° 0.1 mm 6 mps 752 mmHg 85%
    03:00 +2°C° 0 mm 5 mps 753 mmHg 83%
    04:00 +2°C° 0 mm 5 mps 753 mmHg 84%
    05:00 +1°C° 0 mm 5 mps 754 mmHg 85%
    06:00 +1°C° 0 mm 5 mps 754 mmHg 86%
    07:00 +2°C° 0.2 mm 5 mps 754 mmHg 84%
    08:00 +2°C° 0.2 mm 5 mps 755 mmHg 83%
    09:00 +3°C° 0.2 mm 4 mps 755 mmHg 81%
    10:00 +4°C° 0 mm 4 mps 755 mmHg 74%
    11:00 +5°C° 0 mm 4 mps 756 mmHg 67%
    12:00 +7°C° 0 mm 5 mps 756 mmHg 59%
    13:00 +7°C° 0 mm 5 mps 756 mmHg 59%
    14:00 +7°C° 0 mm 5 mps 756 mmHg 59%
    15:00 +7°C° 0 mm 5 mps 756 mmHg 59%
    16:00 +6°C° 0 mm 4 mps 756 mmHg 64%
    17:00 +5°C° 0 mm 4 mps 756 mmHg 69%
    18:00 +4°C° 0 mm 3 mps 756 mmHg 74%
    19:00 +4°C° 0 mm 3 mps 756 mmHg 76%
    20:00 +3°C° 0 mm 3 mps 756 mmHg 78%
    21:00 +3°C° 0 mm 3 mps 756 mmHg 80%
    22:00 +3°C° 0 mm 3 mps 756 mmHg 83%
    23:00 +2°C° 0 mm 3 mps 756 mmHg 85%

    Tomorrow, 25 September, Wednesday

    Time Temperature Precipitation Wind Pressure Humidity
    00:00 +2°C° 0 mm 3 mps 756 mmHg 88%
    01:00 +2°C° 0 mm 3 mps 756 mmHg 89%
    02:00 +2°C° 0 mm 3 mps 756 mmHg 91%
    03:00 +1°C° 0 mm 3 mps 756 mmHg 92%
    04:00 +1°C° 0 mm 3 mps 756 mmHg 92%
    05:00 +1°C° 0 mm 3 mps 756 mmHg 92%
    06:00 +1°C° 0 mm 3 mps 757 mmHg 92%
    07:00 +2°C° 0 mm 3 mps 757 mmHg 86%
    08:00 +4°C° 0 mm 3 mps 757 mmHg 79%
    09:00 +5°C° 0 mm 3 mps 757 mmHg 73%
    10:00 +6°C° 0 mm 4 mps 757 mmHg 69%
    11:00 +6°C° 0 mm 4 mps 758 mmHg 65%
    12:00 +7°C° 0 mm 4 mps 758 mmHg 60%
    13:00 +7°C° 0 mm 4 mps 758 mmHg 59%
    14:00 +7°C° 0 mm 4 mps 758 mmHg 57%
    15:00 +7°C° 0 mm 4 mps 758 mmHg 56%
    16:00 +7°C° 0 mm 3 mps 758 mmHg 59%
    17:00 +6°C° 0 mm 2 mps 758 mmHg 63%
    18:00 +5°C° 0 mm 2 mps 758 mmHg 67%
    19:00 +5°C° 0 mm 2 mps 758 mmHg 68%
    20:00 +5°C° 0 mm 2 mps 758 mmHg 69%
    21:00 +4°C° 0 mm 2 mps 758 mmHg 70%
    22:00 +4°C° 0 mm 2 mps 758 mmHg 71%
    23:00 +3°C° 0 mm 3 mps 758 mmHg 72%

    Day after tomorrow, 26 September, Thursday

    Time Temperature Precipitation Wind Pressure Humidity
    00:00 +3°C° 0 mm 3 mps 758 mmHg 73%
    01:00 +3°C° 0 mm 3 mps 758 mmHg 76%
    02:00 +2°C° 0 mm 3 mps 758 mmHg 79%
    03:00 +3°C° 0 mm 2 mps 758 mmHg 82%
    04:00 +3°C° 0 mm 2 mps 758 mmHg 82%
    05:00 +2°C° 0 mm 2 mps 758 mmHg 83%
    06:00 +1°C° 0 mm 3 mps 758 mmHg 84%
    07:00 +3°C° 0 mm 3 mps 758 mmHg 78%
    08:00 +4°C° 0 mm 3 mps 758 mmHg 73%
    09:00 +7°C° 0 mm 3 mps 758 mmHg 67%
    10:00 +8°C° 0.1 mm 3 mps 758 mmHg 64%
    11:00 +8°C° 0.1 mm 3 mps 758 mmHg 60%
    12:00 +9°C° 0.1 mm 3 mps 757 mmHg 56%
    13:00 +9°C° 0.1 mm 3 mps 757 mmHg 56%
    14:00 +9°C° 0.1 mm 3 mps 757 mmHg 56%
    15:00 +10°C° 0.1 mm 3 mps 757 mmHg 56%
    16:00 +8°C° 0.1 mm 3 mps 757 mmHg 62%
    17:00 +7°C° 0.1 mm 3 mps 757 mmHg 67%
    18:00 +6°C° 0.1 mm 2 mps 757 mmHg 72%
    19:00 +6°C° 0 mm 2 mps 757 mmHg 74%
    20:00 +4°C° 0 mm 3 mps 757 mmHg 76%
    21:00 +4°C° 0 mm 3 mps 757 mmHg 78%
    22:00 +3°C° 0 mm 3 mps 757 mmHg 79%
    23:00 +3°C° 0 mm 3 mps 757 mmHg 79%

    27 September, Friday

    Time Temperature Precipitation Wind Pressure Humidity
    00:00 +2°C° 0 mm 3 mps 757 mmHg 80%
    01:00 +2°C° 0 mm 3 mps 757 mmHg 82%
    02:00 +2°C° 0 mm 3 mps 757 mmHg 83%
    03:00 +1°C° 0 mm 3 mps 757 mmHg 84%
    04:00 +1°C° 0 mm 3 mps 757 mmHg 85%
    05:00 +1°C° 0 mm 3 mps 757 mmHg 85%
    06:00 +1°C° 0 mm 3 mps 757 mmHg 86%
    07:00 +3°C° 0 mm 3 mps 757 mmHg 77%
    08:00 +4°C° 0 mm 4 mps 757 mmHg 68%
    09:00 +6°C° 0 mm 4 mps 757 mmHg 59%
    10:00 +6°C° 0 mm 4 mps 757 mmHg 58%
    11:00 +7°C° 0 mm 4 mps 757 mmHg 57%
    12:00 +8°C° 0 mm 4 mps 757 mmHg 56%
    13:00 +8°C° 0 mm 4 mps 757 mmHg 57%
    14:00 +8°C° 0 mm 4 mps 756 mmHg 58%
    15:00 +8°C° 0 mm 4 mps 756 mmHg 59%
    16:00 +7°C° 0 mm 4 mps 756 mmHg 62%
    17:00 +7°C° 0 mm 4 mps 756 mmHg 65%
    18:00 +8°C° 0 mm 3 mps 756 mmHg 68%
    19:00 +7°C° 0 mm 3 mps 756 mmHg 70%
    20:00 +7°C° 0 mm 3 mps 756 mmHg 72%
    21:00 +5°C° 0 mm 3 mps 756 mmHg 75%
    22:00 +5°C° 0 mm 3 mps 756 mmHg 76%
    23:00 +5°C° 0 mm 3 mps 756 mmHg 77%

    28 September, Saturday

    Time Temperature Precipitation Wind Pressure Humidity
    00:00 +5°C° 0 mm 3 mps 756 mmHg 78%
    01:00 +5°C° 0 mm 4 mps 756 mmHg 79%
    02:00 +5°C° 0 mm 4 mps 756 mmHg 80%
    03:00 +5°C° 0 mm 4 mps 756 mmHg 81%
    04:00 +5°C° 0 mm 4 mps 756 mmHg 83%
    05:00 +5°C° 0 mm 4 mps 756 mmHg 86%
    06:00 +5°C° 0 mm 4 mps 756 mmHg 88%
    07:00 +6°C° 0 mm 4 mps 756 mmHg 84%
    08:00 +7°C° 0 mm 4 mps 756 mmHg 79%
    09:00 +8°C° 0 mm 4 mps 756 mmHg 75%
    10:00 +8°C° 0 mm 4 mps 756 mmHg 73%
    11:00 +8°C° 0 mm 4 mps 757 mmHg 70%
    12:00 +8°C° 0 mm 4 mps 757 mmHg 68%
    13:00 +8°C° 0 mm 4 mps 757 mmHg 68%
    14:00 +8°C° 0 mm 4 mps 756 mmHg 67%
    15:00 +8°C° 0 mm 4 mps 756 mmHg 67%
    16:00 +8°C° 0 mm 4 mps 757 mmHg 67%
    17:00 +7°C° 0 mm 4 mps 757 mmHg 68%
    18:00 +8°C° 0 mm 3 mps 757 mmHg 69%
    19:00 +8°C° 0 mm 3 mps 757 mmHg 69%
    20:00 +8°C° 0 mm 3 mps 757 mmHg 69%
    21:00 +8°C° 0 mm 2 mps 757 mmHg 69%
    22:00 +7°C° 0 mm 3 mps 758 mmHg 71%
    23:00 +7°C° 0 mm 3 mps 758 mmHg 73%

    29 September, Sunday

    Time Temperature Precipitation Wind Pressure Humidity
    00:00 +5°C° 0 mm 3 mps 758 mmHg 76%
    01:00 +5°C° 0 mm 3 mps 758 mmHg 74%
    02:00 +4°C° 0 mm 3 mps 758 mmHg 73%
    03:00 +4°C° 0 mm 3 mps 758 mmHg 71%
    04:00 +4°C° 0 mm 2 mps 758 mmHg 72%
    05:00 +4°C° 0 mm 2 mps 758 mmHg 73%
    06:00 +3°C° 0 mm 2 mps 758 mmHg 74%
    07:00 +5°C° 0 mm 2 mps 758 mmHg 69%
    08:00 +6°C° 0 mm 2 mps 758 mmHg 63%
    09:00 +7°C° 0 mm 2 mps 759 mmHg 58%
    10:00 +8°C° 0 mm 1 mps 759 mmHg 56%
    11:00 +9°C° 0 mm 1 mps 759 mmHg 53%
    12:00 +9°C° 0 mm 0 mps 759 mmHg 51%
    13:00 +10°C° 0 mm 1 mps 759 mmHg 51%
    14:00 +10°C° 0 mm 1 mps 758 mmHg 51%
    15:00 +10°C° 0 mm 1 mps 758 mmHg 51%
    16:00 +8°C° 0 mm 2 mps 758 mmHg 55%
    17:00 +7°C° 0 mm 2 mps 758 mmHg 60%
    18:00 +5°C° 0 mm 3 mps 758 mmHg 65%
    19:00 +5°C° 0 mm 3 mps 758 mmHg 64%
    20:00 +7°C° 0 mm 3 mps 757 mmHg 63%
    21:00 +6°C° 0 mm 4 mps 757 mmHg 63%
    22:00 +6°C° 0 mm 4 mps 757 mmHg 63%
    23:00 +6°C° 0 mm 5 mps 757 mmHg 64%
    Show more